THORAD AGENA D DEB, 4748

Orbit data source: Space-Track

THORAD AGENA D DEB, 4748 is space debris in SSO originally from a launch on Wed, 08 Apr 1970 UTC launched from the Air Force Western Test Range (AFWTR). Debris objects in space refer to the collection of defunct objects orbiting the Earth. Examples of debris include non-operational satellites, rocket bodies, and fragments generated from explosions, collisions, or faulty payload assembly.

Loading next visibility...
Identifier
4748, 1970-025CW
Orbit
SSO
Country
Flag of USUS
Related business
Manufacturer
Unknown
Mission
Spacecraft
Bus & Motor
Unknown
Mass
Unknown
Launch date (UTC)
1970-04-08 (56 years ago)
Launch vehicle
Unknown
Launch site
Air Force Western Test Range (AFWTR)
Object type
Payload
Rocket body
Debris
Shape & HBR
Unknown shape, 0.2 m
Radar Cross Section
Small (<0.1 m²)

Expand to show TLE details & history
Last TLE update: 17 hours ago

TLE from 17 hours ago
0 THORAD AGENA D DEB
1 04748U 70025CW  26072.42418822  .00000405  00000-0  56552-3 0  9990
2 04748 100.1184 246.2595 0005375   6.2762 353.8445 13.64455241769892
Epoch: 2026-03-13T10:10Z
TLE epoch observation values (Epoch: 2026-03-13T10:10:49.862Z)
Latitude
-0.00004°
Longitude
-77.50817°
Altitude
1,018.381 km
Speed
7.345 km/s
True Right ascension
16h 25m 02s
True Declination
0° 00' 00"
Sunlit
Object was in daylight at epoch
Visualization orbit readout
Latitude
Unknown
Longitude
Unknown
Altitude
Unknown
Speed
Unknown
Apparent Right ascension
Unknown
Apparent Declination
Unknown
Sunlit
N/A
Visualization observer readout
Local Sidereal Time
07:28:26
Azimuth
Unknown
Elevation
Unknown
Doppler factor
Unknown
Orbital elements
Apogee altitude
1,020.824 km
Perigee altitude
1,012.874 km
Semi-major axis
7,394.986 km
Eccentricity
0.00054
Inclination
100.1184°
RAAN
246.2595°
Arg. of periapsis
6.2762°
True anomaly
353.83789°
Mean anomaly
353.8445°
Eccentric anomaly
353.8412°
Mean motion
3.41301 °/min
Orbital period
105.48 mins
BSTAR
0.00056552
Loading maneuver chart data...
Computing Atmospheric mass density...
Loading historical data...
Loading historical data...
Loading historical data...
Loading historical data...
Loading historical data...
Loading historical data...
Loading historical data...

Documentation

Showing up to 5 results
|